Time,TemperatureF,DewpointF,PressureIn,WindDirection,WindDirectionDegrees,WindSpeedMPH,WindSpeedGustMPH,Humidity,HourlyPrecipIn,Conditions,Clouds,dailyrainin,SoftwareType,DateUTC
2013-07-16 00:01:00,77.2,71.6,30.15,SE,128,0.0,2.0,83,0.00,,---,0.00,VWS V14.01,2013-07-16 05:01:00,
2013-07-16 00:06:00,77.2,71.6,30.15,SE,135,0.0,2.0,83,0.00,,---,0.00,VWS V14.01,2013-07-16 05:06:00,
2013-07-16 00:11:00,77.3,71.4,30.15,SSE,162,1.0,3.0,82,0.00,,---,0.00,VWS V14.01,2013-07-16 05:11:00,
2013-07-16 00:16:00,77.3,71.4,30.15,SE,128,0.0,2.0,82,0.00,,---,0.00,VWS V14.01,2013-07-16 05:16:00,
2013-07-16 00:21:00,77.4,71.5,30.15,ESE,113,1.0,3.0,82,0.00,,---,0.00,VWS V14.01,2013-07-16 05:21:00,
2013-07-16 00:26:00,77.5,71.6,30.15,SW,222,1.0,5.0,82,0.00,,---,0.00,VWS V14.01,2013-07-16 05:26:00,
2013-07-16 00:31:00,77.6,71.7,30.15,SW,232,3.0,3.0,82,0.00,,---,0.00,VWS V14.01,2013-07-16 05:31:00,
2013-07-16 00:36:00,77.5,71.6,30.15,SW,223,0.0,3.0,82,0.00,,---,0.00,VWS V14.01,2013-07-16 05:36:00,
2013-07-16 00:41:00,77.4,71.5,30.15,ESE,120,3.0,3.0,82,0.00,,---,0.00,VWS V14.01,2013-07-16 05:41:00,
2013-07-16 00:46:00,77.4,71.5,30.15,SE,142,0.0,3.0,82,0.00,,---,0.00,VWS V14.01,2013-07-16 05:46:00,
2013-07-16 00:51:00,77.3,71.4,30.15,SSE,149,1.0,4.0,82,0.00,,---,0.00,VWS V14.01,2013-07-16 05:51:00,
2013-07-16 00:56:00,77.2,71.6,30.15,SSE,150,1.0,4.0,83,0.00,,---,0.00,VWS V14.01,2013-07-16 05:56:00,
2013-07-16 01:01:00,77.2,71.6,30.15,East,97,4.0,4.0,83,0.00,,---,0.00,VWS V14.01,2013-07-16 06:01:00,
2013-07-16 01:06:00,77.2,71.6,30.15,South,170,0.0,4.0,83,0.00,,---,0.00,VWS V14.01,2013-07-16 06:06:00,
2013-07-16 01:11:00,77.2,71.6,30.15,ENE,74,1.0,4.0,83,0.00,,---,0.00,VWS V14.01,2013-07-16 06:11:00,
2013-07-16 01:16:00,77.2,71.6,30.16,SE,136,0.0,5.0,83,0.00,,---,0.00,VWS V14.01,2013-07-16 06:16:00,
2013-07-16 01:21:00,77.2,71.6,30.15,ESE,121,0.0,5.0,83,0.00,,---,0.00,VWS V14.01,2013-07-16 06:21:00,
2013-07-16 01:26:00,77.1,71.5,30.15,ESE,122,0.0,5.0,83,0.00,,---,0.00,VWS V14.01,2013-07-16 06:26:00,
2013-07-16 01:31:00,77.1,71.5,30.15,SE,124,0.0,2.0,83,0.00,,---,0.00,VWS V14.01,2013-07-16 06:31:00,
2013-07-16 01:36:00,77.1,71.9,30.15,SE,128,1.0,4.0,84,0.00,,---,0.00,VWS V14.01,2013-07-16 06:36:00,
2013-07-16 01:41:00,77.1,71.9,30.15,SSW,204,1.0,4.0,84,0.00,,---,0.00,VWS V14.01,2013-07-16 06:41:00,
2013-07-16 01:46:00,77.0,71.8,30.15,WSW,249,1.0,4.0,84,0.00,,---,0.00,VWS V14.01,2013-07-16 06:46:00,
2013-07-16 01:51:00,76.9,71.7,30.15,WSW,242,1.0,4.0,84,0.00,,---,0.00,VWS V14.01,2013-07-16 06:51:00,
2013-07-16 01:56:00,76.9,71.7,30.15,ESE,120,1.0,4.0,84,0.00,,---,0.00,VWS V14.01,2013-07-16 06:56:00,
2013-07-16 02:01:00,76.8,71.6,30.15,ESE,109,1.0,4.0,84,0.00,,---,0.00,VWS V14.01,2013-07-16 07:01:00,
2013-07-16 02:06:00,76.7,71.5,30.15,ESE,110,0.0,4.0,84,0.00,,---,0.00,VWS V14.01,2013-07-16 07:06:00,
2013-07-16 02:11:00,76.6,71.4,30.16,ESE,109,1.0,4.0,84,0.00,,---,0.00,VWS V14.01,2013-07-16 07:11:00,
2013-07-16 02:16:00,76.5,71.7,30.15,ESE,109,0.0,1.0,85,0.00,,---,0.00,VWS V14.01,2013-07-16 07:16:00,
2013-07-16 02:21:00,76.4,71.6,30.15,SSW,204,0.0,2.0,85,0.00,,---,0.00,VWS V14.01,2013-07-16 07:21:00,
2013-07-16 02:26:00,76.3,71.5,30.15,SW,220,1.0,2.0,85,0.00,,---,0.00,VWS V14.01,2013-07-16 07:26:00,
2013-07-16 02:31:00,76.2,71.7,30.15,SW,226,2.0,3.0,86,0.00,,---,0.00,VWS V14.01,2013-07-16 07:31:00,
2013-07-16 02:36:00,76.2,71.7,30.15,ESE,103,0.0,3.0,86,0.00,,---,0.00,VWS V14.01,2013-07-16 07:36:00,
2013-07-16 02:41:00,76.2,71.7,30.15,SW,229,0.0,4.0,86,0.00,,---,0.00,VWS V14.01,2013-07-16 07:41:00,
2013-07-16 02:46:00,76.2,71.7,30.15,West,269,0.0,4.0,86,0.00,,---,0.00,VWS V14.01,2013-07-16 07:46:00,
2013-07-16 02:51:00,76.2,71.7,30.15,WSW,249,1.0,4.0,86,0.00,,---,0.00,VWS V14.01,2013-07-16 07:51:00,
2013-07-16 02:56:00,76.1,71.6,30.15,WSW,257,3.0,4.0,86,0.00,,---,0.00,VWS V14.01,2013-07-16 07:56:00,
2013-07-16 03:01:00,76.1,71.6,30.15,WSW,257,0.0,2.0,86,0.00,,---,0.00,VWS V14.01,2013-07-16 08:01:00,
2013-07-16 03:06:00,75.9,71.4,30.15,WSW,258,0.0,2.0,86,0.00,,---,0.00,VWS V14.01,2013-07-16 08:06:00,
2013-07-16 03:11:00,75.7,71.6,30.15,WSW,256,1.0,2.0,87,0.00,,---,0.00,VWS V14.01,2013-07-16 08:11:00,
2013-07-16 03:16:00,75.6,71.5,30.15,WSW,257,0.0,2.0,87,0.00,,---,0.00,VWS V14.01,2013-07-16 08:16:00,
2013-07-16 03:21:00,75.5,71.4,30.15,SW,229,1.0,3.0,87,0.00,,---,0.00,VWS V14.01,2013-07-16 08:21:00,
2013-07-16 03:26:00,75.5,71.4,30.15,SE,127,1.0,3.0,87,0.00,,---,0.00,VWS V14.01,2013-07-16 08:26:00,
2013-07-16 03:31:00,75.6,71.5,30.14,ESE,116,2.0,3.0,87,0.00,,---,0.00,VWS V14.01,2013-07-16 08:31:00,
2013-07-16 03:36:00,75.6,71.5,30.15,West,278,2.0,3.0,87,0.00,,---,0.00,VWS V14.01,2013-07-16 08:36:00,
2013-07-16 03:41:00,75.7,71.6,30.14,SE,127,1.0,3.0,87,0.00,,---,0.00,VWS V14.01,2013-07-16 08:41:00,
2013-07-16 03:46:00,75.8,71.7,30.14,SSE,157,1.0,3.0,87,0.00,,---,0.00,VWS V14.01,2013-07-16 08:46:00,
2013-07-16 03:51:00,75.8,71.7,30.14,SSW,204,1.0,4.0,87,0.00,,---,0.00,VWS V14.01,2013-07-16 08:51:00,
2013-07-16 03:56:00,75.8,71.7,30.14,SW,225,2.0,4.0,87,0.00,,---,0.00,VWS V14.01,2013-07-16 08:56:00,
2013-07-16 04:01:00,75.8,71.7,30.14,East,82,1.0,2.0,87,0.00,,---,0.00,VWS V14.01,2013-07-16 09:01:00,
2013-07-16 04:06:00,75.9,71.8,30.15,SSE,165,1.0,4.0,87,0.00,,---,0.00,VWS V14.01,2013-07-16 09:06:00,
2013-07-16 04:11:00,75.9,71.8,30.15,ENE,77,1.0,4.0,87,0.00,,---,0.00,VWS V14.01,2013-07-16 09:11:00,
2013-07-16 04:16:00,75.9,71.8,30.15,East,86,2.0,2.0,87,0.00,,---,0.00,VWS V14.01,2013-07-16 09:16:00,
2013-07-16 04:21:00,75.8,71.7,30.14,SSE,152,0.0,3.0,87,0.00,,---,0.00,VWS V14.01,2013-07-16 09:21:00,
2013-07-16 04:26:00,75.8,71.7,30.15,SSE,151,0.0,3.0,87,0.00,,---,0.00,VWS V14.01,2013-07-16 09:26:00,
2013-07-16 04:31:00,75.7,71.6,30.15,ESE,116,1.0,3.0,87,0.00,,---,0.00,VWS V14.01,2013-07-16 09:31:00,
2013-07-16 04:36:00,75.6,71.5,30.15,ESE,117,0.0,3.0,87,0.00,,---,0.00,VWS V14.01,2013-07-16 09:36:00,
2013-07-16 04:41:00,75.5,71.4,30.15,NE,47,0.0,3.0,87,0.00,,---,0.00,VWS V14.01,2013-07-16 09:41:00,
2013-07-16 04:46:00,75.5,71.4,30.15,NE,38,0.0,1.0,87,0.00,,---,0.00,VWS V14.01,2013-07-16 09:46:00,
2013-07-16 04:51:00,75.3,71.5,30.15,NE,38,0.0,2.0,88,0.00,,---,0.00,VWS V14.01,2013-07-16 09:51:00,
2013-07-16 04:56:00,75.1,71.3,30.15,SSE,152,0.0,3.0,88,0.00,,---,0.00,VWS V14.01,2013-07-16 09:56:00,
2013-07-16 05:01:00,75.0,71.5,30.15,ESE,112,0.0,2.0,89,0.00,,---,0.00,VWS V14.01,2013-07-16 10:01:00,
2013-07-16 05:06:00,75.1,71.6,30.15,ESE,115,1.0,2.0,89,0.00,,---,0.00,VWS V14.01,2013-07-16 10:06:00,
2013-07-16 05:11:00,75.0,71.5,30.15,SE,128,1.0,2.0,89,0.00,,---,0.00,VWS V14.01,2013-07-16 10:11:00,
2013-07-16 05:16:00,74.9,71.4,30.15,ESE,112,0.0,2.0,89,0.00,,---,0.00,VWS V14.01,2013-07-16 10:16:00,
2013-07-16 05:21:00,74.9,71.4,30.15,West,273,0.0,2.0,89,0.00,,---,0.00,VWS V14.01,2013-07-16 10:21:00,
2013-07-16 05:26:00,74.8,71.3,30.15,West,273,1.0,2.0,89,0.00,,---,0.00,VWS V14.01,2013-07-16 10:26:00,
2013-07-16 05:31:00,74.7,71.2,30.15,West,273,0.0,1.0,89,0.00,,---,0.00,VWS V14.01,2013-07-16 10:31:00,
2013-07-16 05:36:00,74.6,71.2,30.15,West,272,1.0,1.0,89,0.00,,---,0.00,VWS V14.01,2013-07-16 10:36:00,
2013-07-16 05:41:00,74.5,71.4,30.15,West,273,0.0,1.0,90,0.00,,---,0.00,VWS V14.01,2013-07-16 10:41:00,
2013-07-16 05:46:00,74.4,71.3,30.15,West,273,0.0,1.0,90,0.00,,---,0.00,VWS V14.01,2013-07-16 10:46:00,
2013-07-16 05:51:00,74.4,71.3,30.15,West,273,0.0,1.0,90,0.00,,---,0.00,VWS V14.01,2013-07-16 10:51:00,
2013-07-16 05:56:00,74.5,71.4,30.15,West,273,0.0,1.0,90,0.00,,---,0.00,VWS V14.01,2013-07-16 10:56:00,
2013-07-16 06:01:00,74.4,71.3,30.16,West,273,0.0,0.0,90,0.00,,---,0.00,VWS V14.01,2013-07-16 11:01:00,
2013-07-16 06:06:00,74.4,71.3,30.16,West,273,0.0,0.0,90,0.00,,---,0.00,VWS V14.01,2013-07-16 11:06:00,
2013-07-16 06:11:00,74.4,71.3,30.16,West,273,0.0,0.0,90,0.00,,---,0.00,VWS V14.01,2013-07-16 11:11:00,
2013-07-16 06:16:00,74.4,71.3,30.15,West,273,0.0,0.0,90,0.00,,---,0.00,VWS V14.01,2013-07-16 11:16:00,
2013-07-16 06:21:00,74.4,71.3,30.16,West,275,0.0,0.0,90,0.00,,---,0.00,VWS V14.01,2013-07-16 11:21:00,
2013-07-16 06:26:00,74.4,71.3,30.16,West,275,0.0,2.0,90,0.00,,---,0.00,VWS V14.01,2013-07-16 11:26:00,
2013-07-16 06:31:00,74.4,71.6,30.16,West,275,0.0,0.0,91,0.00,,---,0.00,VWS V14.01,2013-07-16 11:31:00,
2013-07-16 06:36:00,74.5,71.7,30.16,SW,232,3.0,3.0,91,0.00,,---,0.00,VWS V14.01,2013-07-16 11:36:00,
2013-07-16 06:41:00,74.7,71.9,30.16,WSW,238,0.0,3.0,91,0.00,,---,0.00,VWS V14.01,2013-07-16 11:41:00,
2013-07-16 06:46:00,74.8,72.0,30.16,WSW,243,1.0,1.0,91,0.00,,---,0.00,VWS V14.01,2013-07-16 11:46:00,
2013-07-16 06:51:00,74.9,71.8,30.17,WSW,242,0.0,1.0,90,0.00,,---,0.00,VWS V14.01,2013-07-16 11:51:00,
2013-07-16 06:56:00,75.1,72.0,30.16,WSW,242,0.0,1.0,90,0.00,,---,0.00,VWS V14.01,2013-07-16 11:56:00,
2013-07-16 07:01:00,75.2,72.1,30.16,NNW,341,0.0,2.0,90,0.00,,---,0.00,VWS V14.01,2013-07-16 12:01:00,
2013-07-16 07:06:00,75.5,72.4,30.16,NW,304,1.0,3.0,90,0.00,,---,0.00,VWS V14.01,2013-07-16 12:06:00,
2013-07-16 07:11:00,75.7,72.2,30.17,NE,36,2.0,3.0,89,0.00,,---,0.00,VWS V14.01,2013-07-16 12:11:00,
2013-07-16 07:16:00,76.0,72.5,30.17,WNW,290,1.0,4.0,89,0.00,,---,0.00,VWS V14.01,2013-07-16 12:16:00,
2013-07-16 07:21:00,76.4,72.6,30.17,SSW,206,2.0,4.0,88,0.00,,---,0.00,VWS V14.01,2013-07-16 12:21:00,
2013-07-16 07:26:00,76.6,72.4,30.17,SE,134,2.0,4.0,87,0.00,,---,0.00,VWS V14.01,2013-07-16 12:26:00,
2013-07-16 07:31:00,77.0,72.5,30.17,SW,226,1.0,5.0,86,0.00,,---,0.00,VWS V14.01,2013-07-16 12:31:00,
2013-07-16 07:36:00,77.2,72.7,30.17,WSW,251,1.0,7.0,86,0.00,,---,0.00,VWS V14.01,2013-07-16 12:36:00,
2013-07-16 07:41:00,77.4,72.5,30.17,SW,228,2.0,7.0,85,0.00,,---,0.00,VWS V14.01,2013-07-16 12:41:00,
2013-07-16 07:46:00,77.7,72.8,30.17,West,267,1.0,5.0,85,0.00,,---,0.00,VWS V14.01,2013-07-16 12:46:00,
2013-07-16 07:51:00,77.9,72.7,30.17,WNW,296,1.0,5.0,84,0.00,,---,0.00,VWS V14.01,2013-07-16 12:51:00,
2013-07-16 07:56:00,78.0,72.8,30.17,NE,36,2.0,5.0,84,0.00,,---,0.00,VWS V14.01,2013-07-16 12:56:00,
2013-07-16 08:01:00,78.1,72.5,30.17,West,277,2.0,4.0,83,0.00,,---,0.00,VWS V14.01,2013-07-16 13:01:00,
2013-07-16 08:06:00,78.2,72.6,30.17,SSW,211,2.0,6.0,83,0.00,,---,0.00,VWS V14.01,2013-07-16 13:06:00,
2013-07-16 08:11:00,78.4,72.8,30.17,SE,146,4.0,6.0,83,0.00,,---,0.00,VWS V14.01,2013-07-16 13:11:00,
2013-07-16 08:16:00,78.6,73.0,30.18,WNW,300,1.0,3.0,83,0.00,,---,0.00,VWS V14.01,2013-07-16 13:16:00,
2013-07-16 08:21:00,78.8,73.2,30.18,WSW,256,1.0,3.0,83,0.00,,---,0.00,VWS V14.01,2013-07-16 13:21:00,
2013-07-16 08:26:00,79.0,73.0,30.18,WSW,246,2.0,6.0,82,0.00,,---,0.00,VWS V14.01,2013-07-16 13:26:00,
2013-07-16 08:31:00,79.3,73.3,30.18,NNW,332,1.0,2.0,82,0.00,,---,0.00,VWS V14.01,2013-07-16 13:31:00,
2013-07-16 08:36:00,79.7,73.4,30.18,WNW,291,1.0,5.0,81,0.00,,---,0.00,VWS V14.01,2013-07-16 13:36:00,
2013-07-16 08:41:00,80.4,73.7,30.18,West,268,2.0,5.0,80,0.00,,---,0.00,VWS V14.01,2013-07-16 13:41:00,
2013-07-16 08:46:00,81.2,73.7,30.18,NW,315,1.0,3.0,78,0.00,,---,0.00,VWS V14.01,2013-07-16 13:46:00,
2013-07-16 08:51:00,81.7,73.8,30.18,NNE,14,0.0,4.0,77,0.00,,---,0.00,VWS V14.01,2013-07-16 13:51:00,
2013-07-16 08:56:00,82.3,74.0,30.18,NW,310,1.0,4.0,76,0.00,,---,0.00,VWS V14.01,2013-07-16 13:56:00,
2013-07-16 09:01:00,82.9,73.8,30.18,West,261,3.0,5.0,74,0.00,,---,0.00,VWS V14.01,2013-07-16 14:01:00,
2013-07-16 09:06:00,83.3,73.8,30.18,NW,318,1.0,5.0,73,0.00,,---,0.00,VWS V14.01,2013-07-16 14:06:00,
2013-07-16 09:11:00,83.8,74.2,30.18,SSW,201,4.0,5.0,73,0.00,,---,0.00,VWS V14.01,2013-07-16 14:11:00,
2013-07-16 09:16:00,84.3,73.9,30.18,NW,312,1.0,6.0,71,0.00,,---,0.00,VWS V14.01,2013-07-16 14:16:00,
2013-07-16 09:21:00,84.4,74.0,30.18,SSW,192,3.0,6.0,71,0.00,,---,0.00,VWS V14.01,2013-07-16 14:21:00,
2013-07-16 09:26:00,84.9,74.9,30.18,West,268,1.0,6.0,72,0.00,,---,0.00,VWS V14.01,2013-07-16 14:26:00,
2013-07-16 09:31:00,85.5,74.6,30.17,ESE,116,1.0,4.0,70,0.00,,---,0.00,VWS V14.01,2013-07-16 14:31:00,
2013-07-16 09:36:00,85.7,74.8,30.18,East,100,0.0,4.0,70,0.00,,---,0.00,VWS V14.01,2013-07-16 14:36:00,
2013-07-16 09:41:00,85.9,74.1,30.18,East,100,2.0,6.0,68,0.00,,---,0.00,VWS V14.01,2013-07-16 14:41:00,
2013-07-16 09:46:00,85.9,74.1,30.18,WSW,256,1.0,6.0,68,0.00,,---,0.00,VWS V14.01,2013-07-16 14:46:00,
2013-07-16 09:51:00,86.1,74.3,30.18,SSE,157,2.0,7.0,68,0.00,,---,0.00,VWS V14.01,2013-07-16 14:51:00,
2013-07-16 09:55:00,86.3,73.6,30.18,ESE,113,3.0,7.0,66,0.00,,---,0.00,VWS V14.01,2013-07-16 14:55:00,
2013-07-16 10:00:00,86.2,74.4,30.18,SSW,211,4.0,5.0,68,0.00,,---,0.00,VWS V14.01,2013-07-16 15:00:00,
2013-07-16 10:05:00,86.6,74.3,30.18,SW,219,2.0,5.0,67,0.00,,---,0.00,VWS V14.01,2013-07-16 15:05:00,
2013-07-16 10:10:00,86.9,75.1,30.18,WNW,295,2.0,5.0,68,0.00,,---,0.00,VWS V14.01,2013-07-16 15:10:00,
2013-07-16 10:15:00,87.2,74.9,30.18,SW,228,2.0,4.0,67,0.00,,---,0.00,VWS V14.01,2013-07-16 15:15:00,
2013-07-16 10:20:00,87.4,73.7,30.18,SW,223,1.0,7.0,64,0.00,,---,0.00,VWS V14.01,2013-07-16 15:20:00,
2013-07-16 10:25:00,87.7,74.9,30.18,West,262,3.0,7.0,66,0.00,,---,0.00,VWS V14.01,2013-07-16 15:25:00,
2013-07-16 10:30:00,88.1,76.2,30.17,SSW,212,0.0,5.0,68,0.00,,---,0.00,VWS V14.01,2013-07-16 15:30:00,
2013-07-16 10:35:00,88.4,74.2,30.18,NW,319,0.0,5.0,63,0.00,,---,0.00,VWS V14.01,2013-07-16 15:35:00,
2013-07-16 10:40:00,88.1,73.4,30.18,WSW,242,4.0,7.0,62,0.00,,---,0.00,VWS V14.01,2013-07-16 15:40:00,
2013-07-16 10:45:00,88.0,73.8,30.18,SE,126,2.0,6.0,63,0.00,,---,0.00,VWS V14.01,2013-07-16 15:45:00,
2013-07-16 10:50:00,88.0,74.3,30.18,North,3,2.0,6.0,64,0.00,,---,0.00,VWS V14.01,2013-07-16 15:50:00,
2013-07-16 10:55:00,88.2,73.1,30.18,West,264,2.0,7.0,61,0.00,,---,0.00,VWS V14.01,2013-07-16 15:55:00,
2013-07-16 11:00:00,88.2,73.6,30.17,WNW,296,2.0,10.0,62,0.00,,---,0.00,VWS V14.01,2013-07-16 16:00:00,
2013-07-16 11:05:00,88.2,73.1,30.18,SW,215,2.0,10.0,61,0.00,,---,0.00,VWS V14.01,2013-07-16 16:05:00,
2013-07-16 11:10:00,88.4,73.2,30.18,SW,223,4.0,10.0,61,0.00,,---,0.00,VWS V14.01,2013-07-16 16:10:00,
2013-07-16 11:15:00,88.6,72.9,30.18,NNW,344,1.0,5.0,60,0.00,,---,0.00,VWS V14.01,2013-07-16 16:15:00,
2013-07-16 11:20:00,88.8,74.1,30.18,NW,312,1.0,6.0,62,0.00,,---,0.00,VWS V14.01,2013-07-16 16:20:00,
2013-07-16 11:25:00,89.0,72.8,30.17,West,265,1.0,8.0,59,0.00,,---,0.00,VWS V14.01,2013-07-16 16:25:00,
2013-07-16 11:30:00,89.2,74.0,30.17,SW,218,4.0,6.0,61,0.00,,---,0.00,VWS V14.01,2013-07-16 16:30:00,
2013-07-16 11:35:00,89.5,74.3,30.17,SSW,192,2.0,6.0,61,0.00,,---,0.00,VWS V14.01,2013-07-16 16:35:00,
2013-07-16 11:40:00,89.4,73.7,30.18,WSW,250,3.0,10.0,60,0.00,,---,0.00,VWS V14.01,2013-07-16 16:40:00,
2013-07-16 11:45:00,89.5,72.8,30.18,SW,229,4.0,7.0,58,0.00,,---,0.00,VWS V14.01,2013-07-16 16:45:00,
2013-07-16 11:50:00,89.7,74.0,30.18,NW,312,2.0,7.0,60,0.00,,---,0.00,VWS V14.01,2013-07-16 16:50:00,
2013-07-16 11:55:00,90.2,72.9,30.17,NNW,335,1.0,9.0,57,0.00,,---,0.00,VWS V14.01,2013-07-16 16:55:00,
2013-07-16 12:00:00,90.4,73.1,30.17,West,279,2.0,8.0,57,0.00,,---,0.00,VWS V14.01,2013-07-16 17:00:00,
2013-07-16 12:05:00,90.3,71.4,30.17,South,180,4.0,9.0,54,0.00,,---,0.00,VWS V14.01,2013-07-16 17:05:00,
2013-07-16 12:10:00,90.2,72.4,30.17,South,178,2.0,9.0,56,0.00,,---,0.00,VWS V14.01,2013-07-16 17:10:00,
2013-07-16 12:15:00,90.2,71.9,30.17,SSW,213,2.0,7.0,55,0.00,,---,0.00,VWS V14.01,2013-07-16 17:15:00,
2013-07-16 12:20:00,90.3,72.5,30.17,NW,326,3.0,8.0,56,0.00,,---,0.00,VWS V14.01,2013-07-16 17:20:00,
2013-07-16 12:25:00,90.4,72.6,30.17,SSE,148,3.0,8.0,56,0.00,,---,0.00,VWS V14.01,2013-07-16 17:25:00,
2013-07-16 12:30:00,90.5,71.6,30.17,South,190,2.0,6.0,54,0.00,,---,0.00,VWS V14.01,2013-07-16 17:30:00,
2013-07-16 12:35:00,90.6,73.3,30.17,SE,143,1.0,6.0,57,0.00,,---,0.00,VWS V14.01,2013-07-16 17:35:00,
2013-07-16 12:40:00,90.7,71.8,30.17,SW,216,1.0,6.0,54,0.00,,---,0.00,VWS V14.01,2013-07-16 17:40:00,
2013-07-16 12:45:00,90.9,73.6,30.17,WSW,251,4.0,7.0,57,0.00,,---,0.00,VWS V14.01,2013-07-16 17:45:00,
2013-07-16 12:50:00,90.8,71.9,30.17,SW,223,5.0,7.0,54,0.00,,---,0.00,VWS V14.01,2013-07-16 17:50:00,
2013-07-16 12:55:00,90.9,73.6,30.17,WNW,298,3.0,7.0,57,0.00,,---,0.00,VWS V14.01,2013-07-16 17:55:00,
2013-07-16 13:00:00,91.3,72.3,30.17,NW,305,2.0,5.0,54,0.00,,---,0.00,VWS V14.01,2013-07-16 18:00:00,
2013-07-16 13:05:00,91.3,72.9,30.17,WSW,245,2.0,7.0,55,0.00,,---,0.00,VWS V14.01,2013-07-16 18:05:00,
2013-07-16 13:10:00,91.5,72.0,30.17,WNW,302,3.0,7.0,53,0.00,,---,0.00,VWS V14.01,2013-07-16 18:10:00,
2013-07-16 13:15:00,91.4,74.0,30.17,NW,316,0.0,9.0,57,0.00,,---,0.00,VWS V14.01,2013-07-16 18:15:00,
2013-07-16 13:20:00,91.8,73.9,30.17,NW,318,1.0,9.0,56,0.00,,---,0.00,VWS V14.01,2013-07-16 18:20:00,
2013-07-16 13:25:00,92.1,73.6,30.16,WNW,303,0.0,9.0,55,0.00,,---,0.00,VWS V14.01,2013-07-16 18:25:00,
2013-07-16 13:30:00,92.6,73.0,30.17,SE,138,4.0,6.0,53,0.00,,---,0.00,VWS V14.01,2013-07-16 18:30:00,
2013-07-16 13:35:00,92.5,72.3,30.16,SSW,207,2.0,6.0,52,0.00,,---,0.00,VWS V14.01,2013-07-16 18:35:00,
2013-07-16 13:40:00,92.4,72.8,30.16,WNW,301,1.0,6.0,53,0.00,,---,0.00,VWS V14.01,2013-07-16 18:40:00,
2013-07-16 13:45:00,92.4,72.8,30.16,West,263,4.0,8.0,53,0.00,,---,0.00,VWS V14.01,2013-07-16 18:45:00,
2013-07-16 13:50:00,92.3,71.6,30.16,ENE,61,2.0,11.0,51,0.00,,---,0.00,VWS V14.01,2013-07-16 18:50:00,
2013-07-16 13:55:00,92.4,71.7,30.16,WNW,290,2.0,11.0,51,0.00,,---,0.00,VWS V14.01,2013-07-16 18:55:00,
2013-07-16 14:00:00,92.0,73.0,30.16,NW,316,1.0,5.0,54,0.00,,---,0.00,VWS V14.01,2013-07-16 19:00:00,
2013-07-16 14:05:00,92.1,73.1,30.16,NNW,335,1.0,5.0,54,0.00,,---,0.00,VWS V14.01,2013-07-16 19:05:00,
2013-07-16 14:10:00,92.6,72.4,30.16,NW,318,1.0,5.0,52,0.00,,---,0.00,VWS V14.01,2013-07-16 19:10:00,
2013-07-16 14:15:00,93.1,72.9,30.16,NNW,348,2.0,4.0,52,0.00,,---,0.00,VWS V14.01,2013-07-16 19:15:00,
2013-07-16 14:20:00,93.4,73.7,30.16,ENE,58,2.0,6.0,53,0.00,,---,0.00,VWS V14.01,2013-07-16 19:20:00,
2013-07-16 14:25:00,93.2,72.4,30.16,SW,227,2.0,6.0,51,0.00,,---,0.00,VWS V14.01,2013-07-16 19:25:00,
2013-07-16 14:30:00,93.7,72.8,30.16,North,9,1.0,4.0,51,0.00,,---,0.00,VWS V14.01,2013-07-16 19:30:00,
2013-07-16 14:35:00,94.0,74.3,30.16,West,278,2.0,6.0,53,0.00,,---,0.00,VWS V14.01,2013-07-16 19:35:00,
2013-07-16 14:40:00,93.7,72.8,30.16,West,280,3.0,7.0,51,0.00,,---,0.00,VWS V14.01,2013-07-16 19:40:00,
2013-07-16 14:45:00,93.5,72.7,30.16,East,99,2.0,6.0,51,0.00,,---,0.00,VWS V14.01,2013-07-16 19:45:00,
2013-07-16 14:50:00,92.9,72.7,30.16,NW,310,1.0,7.0,52,0.00,,---,0.00,VWS V14.01,2013-07-16 19:50:00,
2013-07-16 14:55:00,92.5,73.4,30.16,West,279,1.0,7.0,54,0.00,,---,0.00,VWS V14.01,2013-07-16 19:55:00,
2013-07-16 15:00:00,92.3,73.3,30.16,West,267,2.0,4.0,54,0.00,,---,0.00,VWS V14.01,2013-07-16 20:00:00,
2013-07-16 15:05:00,92.4,72.8,30.16,NNW,329,0.0,6.0,53,0.00,,---,0.00,VWS V14.01,2013-07-16 20:05:00,
2013-07-16 15:10:00,92.9,72.7,30.15,West,261,1.0,6.0,52,0.00,,---,0.00,VWS V14.01,2013-07-16 20:10:00,
2013-07-16 15:15:00,93.1,72.3,30.15,NW,304,0.0,6.0,51,0.00,,---,0.00,VWS V14.01,2013-07-16 20:15:00,
2013-07-16 15:20:00,93.3,72.5,30.15,SW,235,3.0,6.0,51,0.00,,---,0.00,VWS V14.01,2013-07-16 20:20:00,
2013-07-16 15:25:00,93.2,73.5,30.15,WSW,237,1.0,7.0,53,0.00,,---,0.00,VWS V14.01,2013-07-16 20:25:00,
2013-07-16 15:30:00,93.6,72.8,30.15,WSW,248,2.0,5.0,51,0.00,,---,0.00,VWS V14.01,2013-07-16 20:30:00,
2013-07-16 15:35:00,93.5,72.1,30.15,SW,225,1.0,5.0,50,0.00,,---,0.00,VWS V14.01,2013-07-16 20:35:00,
2013-07-16 15:40:00,93.6,73.9,30.15,WNW,292,1.0,5.0,53,0.00,,---,0.00,VWS V14.01,2013-07-16 20:40:00,
2013-07-16 15:45:00,93.4,70.8,30.15,SSW,197,3.0,6.0,48,0.00,,---,0.00,VWS V14.01,2013-07-16 20:45:00,
2013-07-16 15:50:00,93.3,71.3,30.15,WSW,241,3.0,8.0,49,0.00,,---,0.00,VWS V14.01,2013-07-16 20:50:00,
2013-07-16 15:55:00,93.1,71.1,30.15,SW,232,1.0,8.0,49,0.00,,---,0.00,VWS V14.01,2013-07-16 20:55:00,
2013-07-16 16:00:00,93.0,71.0,30.15,SE,135,3.0,7.0,49,0.00,,---,0.00,VWS V14.01,2013-07-16 21:00:00,
2013-07-16 16:05:00,93.0,72.2,30.15,WNW,291,1.0,8.0,51,0.00,,---,0.00,VWS V14.01,2013-07-16 21:05:00,
2013-07-16 16:10:00,92.9,71.5,30.15,NW,305,3.0,8.0,50,0.00,,---,0.00,VWS V14.01,2013-07-16 21:10:00,
2013-07-16 16:15:00,93.1,71.7,30.15,South,190,3.0,4.0,50,0.00,,---,0.00,VWS V14.01,2013-07-16 21:15:00,
2013-07-16 16:20:00,93.3,71.3,30.15,SSE,158,5.0,6.0,49,0.00,,---,0.00,VWS V14.01,2013-07-16 21:20:00,
2013-07-16 16:25:00,93.4,72.0,30.15,South,179,4.0,8.0,50,0.00,,---,0.00,VWS V14.01,2013-07-16 21:25:00,
2013-07-16 16:30:00,93.2,71.2,30.15,NNW,348,1.0,8.0,49,0.00,,---,0.00,VWS V14.01,2013-07-16 21:30:00,
2013-07-16 16:35:00,93.1,71.7,30.15,NW,312,1.0,8.0,50,0.00,,---,0.00,VWS V14.01,2013-07-16 21:35:00,
2013-07-16 16:40:00,93.1,71.7,30.15,South,187,1.0,8.0,50,0.00,,---,0.00,VWS V14.01,2013-07-16 21:40:00,
2013-07-16 16:45:00,93.1,72.3,30.15,NW,318,0.0,4.0,51,0.00,,---,0.00,VWS V14.01,2013-07-16 21:45:00,
2013-07-16 16:50:00,92.7,71.3,30.15,NNW,347,1.0,4.0,50,0.00,,---,0.00,VWS V14.01,2013-07-16 21:50:00,
2013-07-16 16:55:00,93.0,72.8,30.14,SSE,153,3.0,5.0,52,0.00,,---,0.00,VWS V14.01,2013-07-16 21:55:00,
2013-07-16 17:00:00,92.9,72.7,30.15,WNW,289,0.0,6.0,52,0.00,,---,0.00,VWS V14.01,2013-07-16 22:00:00,
2013-07-16 17:05:00,92.9,71.5,30.15,SW,235,1.0,7.0,50,0.00,,---,0.00,VWS V14.01,2013-07-16 22:05:00,
2013-07-16 17:10:00,93.1,72.9,30.15,ESE,107,2.0,7.0,52,0.00,,---,0.00,VWS V14.01,2013-07-16 22:10:00,
2013-07-16 17:15:00,93.3,72.5,30.15,SW,220,3.0,5.0,51,0.00,,---,0.00,VWS V14.01,2013-07-16 22:15:00,
2013-07-16 17:20:00,93.4,73.2,30.15,WNW,292,1.0,5.0,52,0.00,,---,0.00,VWS V14.01,2013-07-16 22:20:00,
2013-07-16 17:25:00,93.3,71.9,30.15,WNW,296,2.0,6.0,50,0.00,,---,0.00,VWS V14.01,2013-07-16 22:25:00,
2013-07-16 17:30:00,93.2,72.4,30.14,East,96,0.0,4.0,51,0.00,,---,0.00,VWS V14.01,2013-07-16 22:30:00,
2013-07-16 17:35:00,93.4,72.6,30.15,WNW,284,4.0,5.0,51,0.00,,---,0.00,VWS V14.01,2013-07-16 22:35:00,
2013-07-16 17:40:00,93.3,71.3,30.15,WNW,288,4.0,11.0,49,0.00,,---,0.00,VWS V14.01,2013-07-16 22:40:00,
2013-07-16 17:45:00,92.9,71.5,30.15,NNE,27,1.0,5.0,50,0.00,,---,0.00,VWS V14.01,2013-07-16 22:45:00,
2013-07-16 17:50:00,92.9,72.1,30.14,SW,223,1.0,5.0,51,0.00,,---,0.00,VWS V14.01,2013-07-16 22:50:00,
2013-07-16 17:55:00,92.8,71.4,30.14,West,272,2.0,5.0,50,0.00,,---,0.00,VWS V14.01,2013-07-16 22:55:00,
2013-07-16 18:00:00,92.6,71.3,30.14,WNW,284,6.0,6.0,50,0.00,,---,0.00,VWS V14.01,2013-07-16 23:00:00,
2013-07-16 18:05:00,92.4,71.7,30.14,WNW,289,0.0,6.0,51,0.00,,---,0.00,VWS V14.01,2013-07-16 23:05:00,
2013-07-16 18:10:00,92.4,72.2,30.14,WNW,301,2.0,6.0,52,0.00,,---,0.00,VWS V14.01,2013-07-16 23:10:00,
2013-07-16 18:15:00,92.6,71.8,30.14,WNW,285,2.0,4.0,51,0.00,,---,0.00,VWS V14.01,2013-07-16 23:15:00,
2013-07-16 18:20:00,92.5,71.8,30.13,SSW,211,2.0,5.0,51,0.00,,---,0.00,VWS V14.01,2013-07-16 23:20:00,
2013-07-16 18:25:00,92.3,71.0,30.13,South,180,1.0,6.0,50,0.00,,---,0.00,VWS V14.01,2013-07-16 23:25:00,
2013-07-16 18:30:00,92.2,70.3,30.14,NW,308,3.0,6.0,49,0.00,,---,0.00,VWS V14.01,2013-07-16 23:30:00,
2013-07-16 18:35:00,92.0,71.9,30.14,SW,235,1.0,6.0,52,0.00,,---,0.00,VWS V14.01,2013-07-16 23:35:00,
2013-07-16 18:40:00,92.0,71.3,30.13,WSW,244,3.0,6.0,51,0.00,,---,0.00,VWS V14.01,2013-07-16 23:40:00,
2013-07-16 18:45:00,91.7,71.0,30.13,NW,308,0.0,5.0,51,0.00,,---,0.00,VWS V14.01,2013-07-16 23:45:00,
2013-07-16 18:50:00,91.8,71.1,30.14,SW,221,1.0,5.0,51,0.00,,---,0.00,VWS V14.01,2013-07-16 23:50:00,
2013-07-16 18:55:00,91.9,72.3,30.14,WNW,299,0.0,6.0,53,0.00,,---,0.00,VWS V14.01,2013-07-16 23:55:00,
2013-07-16 19:00:00,91.9,71.8,30.14,NW,316,1.0,2.0,52,0.00,,---,0.00,VWS V14.01,2013-07-17 00:00:00,
2013-07-16 19:05:00,91.6,70.9,30.13,WSW,257,0.0,7.0,51,0.00,,---,0.00,VWS V14.01,2013-07-17 00:05:00,
2013-07-16 19:10:00,91.8,71.1,30.13,WNW,285,2.0,7.0,51,0.00,,---,0.00,VWS V14.01,2013-07-17 00:10:00,
2013-07-16 19:15:00,91.8,71.1,30.14,WSW,251,2.0,6.0,51,0.00,,---,0.00,VWS V14.01,2013-07-17 00:15:00,
2013-07-16 19:20:00,91.7,71.6,30.13,NW,307,1.0,6.0,52,0.00,,---,0.00,VWS V14.01,2013-07-17 00:20:00,
2013-07-16 19:25:00,91.7,71.6,30.14,NW,308,0.0,6.0,52,0.00,,---,0.00,VWS V14.01,2013-07-17 00:25:00,
2013-07-16 19:30:00,92.0,72.4,30.14,NW,307,0.0,1.0,53,0.00,,---,0.00,VWS V14.01,2013-07-17 00:30:00,
2013-07-16 19:35:00,91.9,71.8,30.14,WNW,287,0.0,2.0,52,0.00,,---,0.00,VWS V14.01,2013-07-17 00:35:00,
2013-07-16 19:40:00,91.1,71.6,30.14,West,261,3.0,3.0,53,0.00,,---,0.00,VWS V14.01,2013-07-17 00:40:00,
2013-07-16 19:45:00,90.0,71.7,30.14,NW,315,0.0,3.0,55,0.00,,---,0.00,VWS V14.01,2013-07-17 00:45:00,
2013-07-16 19:50:00,89.3,71.0,30.14,WSW,251,1.0,3.0,55,0.00,,---,0.00,VWS V14.01,2013-07-17 00:50:00,
2013-07-16 19:55:00,88.8,71.1,30.13,WSW,257,1.0,3.0,56,0.00,,---,0.00,VWS V14.01,2013-07-17 00:55:00,
2013-07-16 20:00:00,88.5,71.3,30.13,SSW,206,2.0,3.0,57,0.00,,---,0.00,VWS V14.01,2013-07-17 01:00:00,
2013-07-16 20:05:00,88.1,71.5,30.14,West,264,0.0,3.0,58,0.00,,---,0.00,VWS V14.01,2013-07-17 01:05:00,
2013-07-16 20:10:00,87.8,71.7,30.13,West,262,1.0,3.0,59,0.00,,---,0.00,VWS V14.01,2013-07-17 01:10:00,
2013-07-16 20:15:00,87.4,71.8,30.13,West,262,0.0,2.0,60,0.00,,---,0.00,VWS V14.01,2013-07-17 01:15:00,
2013-07-16 20:20:00,87.0,71.9,30.13,West,262,2.0,2.0,61,0.00,,---,0.00,VWS V14.01,2013-07-17 01:20:00,
2013-07-16 20:25:00,86.6,72.0,30.13,West,264,0.0,2.0,62,0.00,,---,0.00,VWS V14.01,2013-07-17 01:25:00,
2013-07-16 20:30:00,86.2,72.1,30.13,West,264,0.0,1.0,63,0.00,,---,0.00,VWS V14.01,2013-07-17 01:30:00,
2013-07-16 20:35:00,85.7,72.1,30.13,West,263,2.0,2.0,64,0.00,,---,0.00,VWS V14.01,2013-07-17 01:35:00,
2013-07-16 20:40:00,85.3,72.2,30.13,West,263,1.0,2.0,65,0.00,,---,0.00,VWS V14.01,2013-07-17 01:40:00,
2013-07-16 20:45:00,84.9,72.3,30.13,WNW,286,1.0,1.0,66,0.00,,---,0.00,VWS V14.01,2013-07-17 01:45:00,
2013-07-16 20:50:00,84.6,72.0,30.13,WNW,286,0.0,2.0,66,0.00,,---,0.00,VWS V14.01,2013-07-17 01:50:00,
2013-07-16 20:55:00,84.2,72.1,30.13,WNW,286,0.0,2.0,67,0.00,,---,0.00,VWS V14.01,2013-07-17 01:55:00,
2013-07-16 21:00:00,83.8,72.1,30.13,West,277,0.0,2.0,68,0.00,,---,0.00,VWS V14.01,2013-07-17 02:00:00,
2013-07-16 21:05:00,83.5,72.3,30.14,WNW,299,0.0,2.0,69,0.00,,---,0.00,VWS V14.01,2013-07-17 02:05:00,
2013-07-16 21:10:00,83.3,72.1,30.14,WNW,299,0.0,2.0,69,0.00,,---,0.00,VWS V14.01,2013-07-17 02:10:00,
2013-07-16 21:15:00,83.0,72.2,30.14,WNW,299,0.0,0.0,70,0.00,,---,0.00,VWS V14.01,2013-07-17 02:15:00,
2013-07-16 21:20:00,82.8,72.4,30.14,WNW,299,0.0,0.0,71,0.00,,---,0.00,VWS V14.01,2013-07-17 02:20:00,
2013-07-16 21:25:00,82.5,72.2,30.15,WNW,299,0.0,0.0,71,0.00,,---,0.00,VWS V14.01,2013-07-17 02:25:00,
2013-07-16 21:30:00,82.3,72.4,30.15,WNW,299,0.0,0.0,72,0.00,,---,0.00,VWS V14.01,2013-07-17 02:30:00,
2013-07-16 21:35:00,82.1,72.2,30.15,WNW,299,0.0,0.0,72,0.00,,---,0.00,VWS V14.01,2013-07-17 02:35:00,
2013-07-16 21:40:00,81.9,72.0,30.16,WNW,299,0.0,0.0,72,0.00,,---,0.00,VWS V14.01,2013-07-17 02:40:00,
2013-07-16 21:45:00,81.5,72.0,30.16,WNW,299,0.0,0.0,73,0.00,,---,0.00,VWS V14.01,2013-07-17 02:45:00,
2013-07-16 21:50:00,81.2,72.1,30.16,WNW,299,0.0,0.0,74,0.00,,---,0.00,VWS V14.01,2013-07-17 02:50:00,
2013-07-16 21:55:00,80.8,71.7,30.17,WNW,299,0.0,0.0,74,0.00,,---,0.00,VWS V14.01,2013-07-17 02:55:00,
2013-07-16 22:00:00,80.4,71.8,30.17,WNW,299,0.0,0.0,75,0.00,,---,0.00,VWS V14.01,2013-07-17 03:00:00,
2013-07-16 22:05:00,80.1,71.9,30.17,WNW,299,0.0,0.0,76,0.00,,---,0.00,VWS V14.01,2013-07-17 03:05:00,
2013-07-16 22:10:00,79.8,71.9,30.17,WNW,299,0.0,0.0,77,0.00,,---,0.00,VWS V14.01,2013-07-17 03:10:00,
2013-07-16 22:15:00,79.6,72.1,30.17,WNW,299,0.0,0.0,78,0.00,,---,0.00,VWS V14.01,2013-07-17 03:15:00,
2013-07-16 22:20:00,79.5,72.0,30.17,WNW,299,0.0,0.0,78,0.00,,---,0.00,VWS V14.01,2013-07-17 03:20:00,
2013-07-16 22:25:00,79.3,71.8,30.17,WNW,299,0.0,0.0,78,0.00,,---,0.00,VWS V14.01,2013-07-17 03:25:00,
2013-07-16 22:30:00,79.2,71.8,30.17,WNW,299,0.0,0.0,78,0.00,,---,0.00,VWS V14.01,2013-07-17 03:30:00,
2013-07-16 22:35:00,79.0,71.9,30.17,WNW,299,0.0,0.0,79,0.00,,---,0.00,VWS V14.01,2013-07-17 03:35:00,
2013-07-16 22:40:00,78.8,71.7,30.17,WNW,299,0.0,0.0,79,0.00,,---,0.00,VWS V14.01,2013-07-17 03:40:00,
2013-07-16 22:45:00,78.6,71.9,30.17,WNW,299,0.0,0.0,80,0.00,,---,0.00,VWS V14.01,2013-07-17 03:45:00,
2013-07-16 22:50:00,78.5,71.8,30.17,WNW,299,0.0,0.0,80,0.00,,---,0.00,VWS V14.01,2013-07-17 03:50:00,
2013-07-16 22:55:00,78.5,71.8,30.17,WNW,299,0.0,0.0,80,0.00,,---,0.00,VWS V14.01,2013-07-17 03:55:00,
2013-07-16 23:00:00,78.3,71.6,30.17,WNW,299,0.0,0.0,80,0.00,,---,0.00,VWS V14.01,2013-07-17 04:00:00,
2013-07-16 23:01:00,78.3,71.6,30.17,WNW,299,0.0,0.0,80,0.00,,---,0.00,VWS V14.01,2013-07-17 04:01:00,
2013-07-16 23:06:00,78.2,71.9,30.17,WNW,299,0.0,0.0,81,0.00,,---,0.00,VWS V14.01,2013-07-17 04:06:00,
2013-07-16 23:11:00,78.1,71.8,30.17,WNW,299,0.0,0.0,81,0.00,,---,0.00,VWS V14.01,2013-07-17 04:11:00,
2013-07-16 23:16:00,77.9,71.6,30.17,WNW,299,0.0,0.0,81,0.00,,---,0.00,VWS V14.01,2013-07-17 04:16:00,
2013-07-16 23:21:00,77.7,71.4,30.17,WNW,299,0.0,0.0,81,0.00,,---,0.00,VWS V14.01,2013-07-17 04:21:00,
2013-07-16 23:26:00,77.6,71.7,30.17,WNW,299,0.0,0.0,82,0.00,,---,0.00,VWS V14.01,2013-07-17 04:26:00,
2013-07-16 23:31:00,77.7,72.1,30.17,WNW,299,0.0,0.0,83,0.00,,---,0.00,VWS V14.01,2013-07-17 04:31:00,
2013-07-16 23:36:00,77.8,71.9,30.17,WNW,299,0.0,0.0,82,0.00,,---,0.00,VWS V14.01,2013-07-17 04:36:00,
2013-07-16 23:41:00,78.0,72.1,30.17,WNW,299,0.0,0.0,82,0.00,,---,0.00,VWS V14.01,2013-07-17 04:41:00,
2013-07-16 23:46:00,78.0,71.7,30.17,WNW,299,0.0,0.0,81,0.00,,---,0.00,VWS V14.01,2013-07-17 04:46:00,
2013-07-16 23:51:00,78.0,72.1,30.18,WNW,299,0.0,0.0,82,0.00,,---,0.00,VWS V14.01,2013-07-17 04:51:00,
2013-07-16 23:55:00,78.1,71.8,30.18,WNW,299,0.0,0.0,81,0.00,,---,0.00,VWS V14.01,2013-07-17 04:55:00,
2013-07-16 23:59:00,78.1,71.8,30.18,WNW,299,0.0,0.0,81,0.00,,---,0.00,VWS V14.01,2013-07-17 04:59:00,